Location: Gökben Yaylas?
(36.8988°N, 29.6291°E)
Time: 07:54:21
(UTC+00:00)

DELTA 2 R/B (1) - Pass Details

Date: 15 May 2026
Orbit: 787 x 800 km, 39.6° (Epoch: 6 June)

Event Time Altitude Azimuth Distance (km) Brightness Sun altitude
Rises 19:02:21 0° 280° (W) 3,290 7.7 -20.4°
Reaches altitude 10° 19:04:51 10° 283° (WNW) 2,358 6.8 -20.8°
Maximum altitude 19:10:24 70° 7° (N) 840 3.7 -21.6°
Enters shadow 19:13:01 32° 83° (E) 1,336 4.4 -21.9°
